QPF
0.01 0.01 0.01 0.02 0.02 0.02 0.01 0.01 0.02 0.02 0.04 0.05 0.04 0.04 0.05 0.05 0.04 0.03 0.03 0.03 0.03 0.02 0.03 0.03 0.02 0.02 0.06 0.05 0.03 0.04 0.03 0.03 0.03 0.03 0.03 0.02 0.01 0.02 0.04 0.04 0.04 0.04 0.04 0.04
0.02 0.01 0.01 0.01 0.02 0.02 0.02 0.02 0.02 0.02 0.02 0.04 0.04 0.04 0.04 0.03 0.02 0.02 0.02 0.02 0.02 0.02 0.02 0.02 0.01 0.02 0.04 0.03 0.02 0.02 0.02 0.02 0.02 0.03 0.02 0.02 0.02 0.03 0.03 0.03 0.03 0.03 0.02 0.02
0.02 0.02 0.02 0.01 0.01 0.03 0.03 0.02 0.02 0.02 0.02 0.03 0.04 0.04 0.03 0.03 0.02 0.01 0.02 0.02 0.02 0.02 0.02 0.02 0.02 0.02 0.03 0.03 0.03 0.03 0.03 0.03 0.03 0.03 0.02 0.02 0.02 0.03 0.04 0.04 0.02 0.02 0.03 0.02
0.02 0.03 0.02 0.01 0.01 0.02 0.02 0.02 0.01 0.02 0.02 0.02 0.03 0.02 0.02 0.02 0.01 0.01 0.01 0.02 0.02 0.03 0.03 0.03 0.02 0.02 0.03 0.03 0.03 0.03 0.03 0.04 0.05 0.05 0.04 0.03 0.02 0.02 0.03 0.03 0.02 0.03 0.03 0.04
0.01 0.02 0.02 0.01 0.02 0.02 0.01 0.01 0.01 0.02 0.02 0.02 0.02 0.02 0.01 0.01 0.01 0.01 0.02 0.02 0.02 0.03 0.03 0.02 0.02 0.03 0.04 0.03 0.03 0.02 0.02 0.02 0.02 0.02 0.02 0.02 0.02 0.02 0.02 0.02 0.02 0.02 0.03 0.04
0.02 0.02 0.02 0.02 0.02 0.02 0.02 0.01 0.01 0.01 0.01 0.01 0.01 0.01 0.01 0.01 0.00 0.01 0.01 0.01 0.02 0.02 0.02 0.01 0.02 0.02 0.02 0.03 0.03 0.03 0.03 0.02 0.02 0.01 0.02 0.02 0.03 0.03 0.02 0.02 0.02 0.02 0.02 0.03
0.01 0.01 0.01 0.02 0.02 0.03 0.04 0.03 0.01 0.01 0.00 0.00 0.00 0.00 0.00 0.00 0.00 0.01 0.01 0.02 0.02 0.02 0.02 0.01 0.01 0.01 0.01 0.02 0.02 0.03 0.03 0.02 0.03 0.03 0.03 0.04 0.04 0.04 0.03 0.02 0.01 0.01 0.02 0.02
0.02 0.01 0.01 0.01 0.02 0.04 0.05 0.03 0.02 0.01 0.01 0.01 0.01 0.01 0.00 0.01 0.01 0.01 0.02 0.01 0.01 0.01 0.01 0.02 0.01 0.01 0.01 0.02 0.02 0.02 0.02 0.02 0.03 0.03 0.03 0.03 0.02 0.02 0.01 0.01 0.01 0.01 0.01 0.02
0.02 0.02 0.02 0.01 0.02 0.04 0.05 0.05 0.04 0.03 0.02 0.01 0.02 0.03 0.01 0.02 0.02 0.01 0.03 0.03 0.02 0.02 0.02 0.02 0.02 0.01 0.01 0.02 0.02 0.01 0.01 0.02 0.03 0.02 0.01 0.01 0.01 0.01 0.01 0.01 0.02 0.03 0.02 0.01
0.03 0.03 0.03 0.02 0.02 0.02 0.02 0.04 0.05 0.04 0.04 0.03 0.03 0.04 0.02 0.03 0.04 0.03 0.03 0.03 0.03 0.03 0.02 0.01 0.01 0.01 0.01 0.02 0.02 0.02 0.02 0.02 0.02 0.02 0.02 0.02 0.02 0.01 0.01 0.01 0.02 0.02 0.01 0.01
0.03 0.03 0.04 0.03 0.03 0.02 0.01 0.01 0.02 0.02 0.03 0.03 0.03 0.03 0.02 0.02 0.03 0.03 0.03 0.05 0.07 0.06 0.03 0.02 0.01 0.01 0.01 0.01 0.01 0.02 0.02 0.02 0.02 0.01 0.01 0.01 0.01 0.02 0.01 0.01 0.02 0.01 0.01 0.01
0.02 0.04 0.04 0.04 0.03 0.02 0.01 0.01 0.01 0.01 0.01 0.02 0.02 0.01 0.02 0.02 0.02 0.02 0.04 0.07 0.10 0.09 0.04 0.03 0.03 0.02 0.01 0.01 0.01 0.01 0.02 0.01 0.01 0.01 0.01 0.01 0.01 0.02 0.01 0.01 0.02 0.01 0.00 0.01
0.01 0.01 0.02 0.03 0.03 0.02 0.01 0.01 0.01 0.02 0.01 0.02 0.02 0.02 0.02 0.01 0.01 0.02 0.04 0.04 0.05 0.06 0.05 0.05 0.05 0.04 0.02 0.02 0.02 0.02 0.02 0.02 0.01 0.01 0.01 0.02 0.02 0.02 0.02 0.02 0.01 0.01 0.00 0.01
0.01 0.01 0.01 0.02 0.02 0.02 0.01 0.02 0.02 0.02 0.02 0.01 0.02 0.02 0.02 0.02 0.02 0.03 0.03 0.03 0.03 0.04 0.04 0.06 0.07 0.05 0.04 0.03 0.03 0.02 0.02 0.02 0.01 0.01 0.01 0.01 0.01 0.02 0.01 0.01 0.00 0.00 0.01 0.01
0.01 0.01 0.01 0.01 0.01 0.03 0.02 0.01 0.01 0.01 0.01 0.01 0.01 0.01 0.01 0.01 0.01 0.01 0.03 0.02 0.02 0.03 0.03 0.03 0.04 0.04 0.04 0.03 0.03 0.02 0.02 0.01 0.01 0.01 0.01 0.01 0.01 0.01 0.01 0.01 0.00 0.01 0.01 0.01
0.01 0.01 0.02 0.02 0.03 0.04 0.04 0.03 0.02 0.02 0.02 0.01 0.01 0.01 0.01 0.01 0.01 0.01 0.02 0.01 0.02 0.02 0.02 0.02 0.02 0.02 0.02 0.02 0.02 0.01 0.01 0.01 0.01 0.01 0.01 0.01 0.00 0.01 0.01 0.00 0.00 0.00 0.00 0.01
0.02 0.02 0.02 0.02 0.03 0.04 0.03 0.03 0.02 0.03 0.03 0.02 0.01 0.01 0.01 0.01 0.01 0.02 0.02 0.01 0.01 0.01 0.01 0.01 0.01 0.01 0.02 0.02 0.02 0.01 0.01 0.01 0.01 0.01 0.00 0.01 0.01 0.00 0.01 0.01 0.01 0.01 0.01 0.01
0.04 0.03 0.02 0.02 0.02 0.02 0.02 0.03 0.02 0.03 0.04 0.03 0.02 0.02 0.02 0.02 0.02 0.02 0.02 0.01 0.01 0.01 0.01 0.01 0.01 0.01 0.01 0.01 0.02 0.02 0.02 0.02 0.01 0.01 0.01 0.01 0.01 0.00 0.01 0.01 0.01 0.01 0.01 0.01
0.03 0.03 0.02 0.02 0.02 0.01 0.02 0.03 0.02 0.03 0.04 0.04 0.03 0.03 0.03 0.03 0.02 0.02 0.02 0.01 0.01 0.02 0.02 0.01 0.01 0.01 0.01 0.01 0.01 0.02 0.02 0.02 0.02 0.01 0.01 0.01 0.01 0.02 0.02 0.03 0.03 0.03 0.03 0.03
0.01 0.02 0.02 0.02 0.02 0.01 0.02 0.03 0.03 0.03 0.04 0.05 0.04 0.05 0.06 0.04 0.02 0.02 0.02 0.02 0.02 0.02 0.02 0.02 0.01 0.01 0.01 0.01 0.01 0.01 0.01 0.02 0.02 0.02 0.02 0.03 0.03 0.04 0.04 0.03 0.03 0.02 0.02 0.01
0.01 0.01 0.02 0.02 0.02 0.01 0.02 0.03 0.04 0.04 0.04 0.06 0.07 0.08 0.06 0.04 0.03 0.02 0.02 0.02 0.02 0.02 0.02 0.02 0.01 0.01 0.01 0.01 0.01 0.01 0.01 0.02 0.02 0.03 0.04 0.05 0.04 0.03 0.03 0.02 0.01 0.01 0.00 0.00
0.01 0.01 0.02 0.02 0.01 0.01 0.02 0.03 0.04 0.04 0.06 0.08 0.09 0.07 0.04 0.03 0.02 0.02 0.02 0.02 0.02 0.02 0.01 0.01 0.01 0.01 0.01 0.01 0.01 0.02 0.02 0.02 0.03 0.04 0.05 0.06 0.05 0.03 0.02 0.02 0.02 0.02 0.01 0.00
0.02 0.02 0.02 0.02 0.02 0.01 0.01 0.02 0.02 0.03 0.05 0.06 0.06 0.05 0.04 0.03 0.02 0.02 0.02 0.02 0.02 0.02 0.01 0.01 0.02 0.01 0.01 0.01 0.01 0.02 0.02 0.02 0.02 0.03 0.03 0.04 0.04 0.04 0.03 0.03 0.03 0.03 0.02 0.02
0.02 0.02 0.02 0.03 0.01 0.01 0.01 0.01 0.02 0.03 0.03 0.03 0.03 0.03 0.02 0.01 0.02 0.02 0.02 0.03 0.02 0.02 0.02 0.02 0.02 0.02 0.01 0.01 0.02 0.02 0.02 0.02 0.02 0.02 0.02 0.02 0.03 0.03 0.03 0.03 0.03 0.04 0.03 0.03
0.02 0.01 0.02 0.02 0.01 0.01 0.01 0.01 0.01 0.02 0.02 0.03 0.03 0.03 0.02 0.02 0.01 0.02 0.02 0.03 0.03 0.03 0.02 0.02 0.02 0.01 0.01 0.01 0.01 0.01 0.01 0.01 0.01 0.01 0.01 0.01 0.01 0.02 0.02 0.02 0.02 0.02 0.03 0.04
0.01 0.01 0.02 0.02 0.01 0.01 0.01 0.01 0.01 0.01 0.01 0.02 0.02 0.02 0.02 0.02 0.02 0.01 0.02 0.03 0.04 0.04 0.03 0.02 0.02 0.01 0.01 0.01 0.01 0.01 0.01 0.01 0.01 0.01 0.01 0.00 0.00 0.01 0.01 0.01 0.01 0.01 0.01 0.02
0.01 0.01 0.02 0.02 0.01 0.01 0.01 0.01 0.01 0.01 0.01 0.01 0.01 0.01 0.01 0.01 0.01 0.02 0.03 0.04 0.03 0.03 0.03 0.03 0.03 0.02 0.02 0.02 0.02 0.02 0.02 0.02 0.01 0.01 0.00 0.00 0.00 0.00 0.00 0.00 0.00 0.01 0.01 0.01
MSLP
1009.55 1009.51 1009.47 1009.44 1009.40 1009.33 1009.18 1008.94 1008.60 1008.18 1007.74 1007.31 1006.99 1006.85 1006.91 1007.22 1007.77 1008.50 1009.36 1010.26 1011.14 1011.92 1012.57 1013.05 1013.38 1013.59 1013.71 1013.77 1013.81 1013.86 1013.92 1013.99 1014.07 1014.13 1014.18 1014.19 1014.18 1014.14 1014.06 1013.97 1013.86 1013.72 1013.57 1013.39
1009.64 1009.54 1009.38 1009.19 1008.97 1008.69 1008.36 1007.99 1007.57 1007.15 1006.76 1006.45 1006.28 1006.30 1006.51 1006.94 1007.55 1008.30 1009.15 1010.01 1010.83 1011.56 1012.17 1012.65 1013.00 1013.26 1013.44 1013.57 1013.68 1013.78 1013.88 1013.97 1014.05 1014.11 1014.14 1014.15 1014.13 1014.10 1014.05 1013.99 1013.92 1013.83 1013.71 1013.57
1009.75 1009.59 1009.34 1009.01 1008.62 1008.18 1007.72 1007.23 1006.76 1006.34 1005.99 1005.78 1005.72 1005.85 1006.17 1006.66 1007.31 1008.07 1008.89 1009.70 1010.48 1011.17 1011.76 1012.24 1012.64 1012.94 1013.20 1013.40 1013.58 1013.72 1013.85 1013.95 1014.02 1014.06 1014.07 1014.07 1014.05 1014.03 1014.01 1013.99 1013.97 1013.93 1013.86 1013.75
1009.86 1009.64 1009.30 1008.86 1008.35 1007.80 1007.23 1006.68 1006.18 1005.76 1005.46 1005.31 1005.33 1005.54 1005.93 1006.47 1007.13 1007.87 1008.66 1009.43 1010.16 1010.83 1011.41 1011.92 1012.35 1012.71 1013.02 1013.29 1013.51 1013.68 1013.82 1013.91 1013.97 1013.98 1013.98 1013.96 1013.94 1013.94 1013.95 1013.98 1014.00 1014.01 1013.99 1013.92
1009.94 1009.64 1009.22 1008.71 1008.12 1007.50 1006.88 1006.29 1005.78 1005.39 1005.13 1005.04 1005.13 1005.40 1005.82 1006.38 1007.04 1007.77 1008.52 1009.26 1009.96 1010.61 1011.19 1011.72 1012.18 1012.58 1012.94 1013.23 1013.48 1013.66 1013.79 1013.87 1013.90 1013.89 1013.86 1013.83 1013.82 1013.84 1013.88 1013.94 1014.02 1014.07 1014.09 1014.06
1009.92 1009.56 1009.08 1008.51 1007.88 1007.23 1006.59 1006.02 1005.53 1005.18 1004.98 1004.95 1005.09 1005.40 1005.86 1006.43 1007.09 1007.79 1008.51 1009.23 1009.90 1010.54 1011.12 1011.66 1012.14 1012.56 1012.93 1013.24 1013.49 1013.66 1013.78 1013.82 1013.82 1013.79 1013.75 1013.72 1013.71 1013.75 1013.82 1013.92 1014.03 1014.12 1014.18 1014.16
1009.82 1009.38 1008.85 1008.24 1007.59 1006.94 1006.33 1005.80 1005.37 1005.08 1004.94 1004.98 1005.18 1005.53 1006.01 1006.60 1007.25 1007.94 1008.64 1009.33 1009.99 1010.61 1011.19 1011.71 1012.19 1012.62 1012.98 1013.29 1013.52 1013.67 1013.76 1013.79 1013.77 1013.72 1013.67 1013.64 1013.65 1013.70 1013.80 1013.92 1014.06 1014.17 1014.24 1014.24
1009.63 1009.12 1008.54 1007.91 1007.27 1006.65 1006.08 1005.60 1005.25 1005.03 1004.97 1005.07 1005.34 1005.73 1006.25 1006.84 1007.50 1008.18 1008.87 1009.54 1010.18 1010.78 1011.34 1011.85 1012.31 1012.72 1013.06 1013.34 1013.55 1013.68 1013.75 1013.76 1013.74 1013.69 1013.64 1013.63 1013.65 1013.72 1013.83 1013.96 1014.10 1014.22 1014.29 1014.29
1009.42 1008.85 1008.22 1007.58 1006.94 1006.35 1005.84 1005.43 1005.15 1005.01 1005.03 1005.20 1005.52 1005.96 1006.50 1007.12 1007.78 1008.46 1009.14 1009.79 1010.41 1010.98 1011.51 1012.00 1012.43 1012.80 1013.12 1013.37 1013.56 1013.68 1013.74 1013.75 1013.73 1013.70 1013.68 1013.68 1013.72 1013.80 1013.91 1014.05 1014.18 1014.28 1014.33 1014.32
1009.26 1008.63 1007.97 1007.31 1006.68 1006.12 1005.65 1005.29 1005.07 1005.00 1005.08 1005.31 1005.68 1006.16 1006.73 1007.36 1008.03 1008.71 1009.38 1010.01 1010.61 1011.16 1011.66 1012.11 1012.50 1012.84 1013.13 1013.36 1013.53 1013.64 1013.71 1013.75 1013.75 1013.76 1013.77 1013.80 1013.85 1013.94 1014.05 1014.16 1014.27 1014.34 1014.37 1014.33
1009.24 1008.57 1007.87 1007.19 1006.56 1006.00 1005.55 1005.23 1005.05 1005.02 1005.14 1005.41 1005.80 1006.31 1006.90 1007.54 1008.21 1008.89 1009.54 1010.17 1010.74 1011.26 1011.73 1012.14 1012.50 1012.81 1013.07 1013.28 1013.44 1013.57 1013.66 1013.73 1013.78 1013.82 1013.87 1013.94 1014.01 1014.10 1014.20 1014.29 1014.36 1014.40 1014.39 1014.32
1009.44 1008.73 1008.00 1007.29 1006.64 1006.07 1005.62 1005.30 1005.12 1005.10 1005.22 1005.49 1005.89 1006.40 1006.99 1007.63 1008.30 1008.97 1009.61 1010.22 1010.77 1011.26 1011.70 1012.08 1012.41 1012.69 1012.93 1013.13 1013.30 1013.45 1013.57 1013.68 1013.78 1013.87 1013.96 1014.06 1014.15 1014.24 1014.32 1014.39 1014.43 1014.43 1014.39 1014.30
1009.88 1009.14 1008.38 1007.64 1006.96 1006.36 1005.87 1005.52 1005.31 1005.26 1005.35 1005.59 1005.97 1006.45 1007.02 1007.65 1008.30 1008.96 1009.59 1010.18 1010.71 1011.18 1011.59 1011.95 1012.25 1012.51 1012.73 1012.93 1013.11 1013.28 1013.44 1013.59 1013.73 1013.87 1014.00 1014.12 1014.23 1014.33 1014.40 1014.44 1014.45 1014.43 1014.36 1014.27
1010.52 1009.77 1009.00 1008.23 1007.51 1006.87 1006.33 1005.92 1005.65 1005.54 1005.57 1005.76 1006.08 1006.52 1007.04 1007.64 1008.26 1008.89 1009.50 1010.07 1010.58 1011.04 1011.43 1011.76 1012.04 1012.29 1012.50 1012.70 1012.89 1013.07 1013.26 1013.44 1013.62 1013.79 1013.96 1014.10 1014.23 1014.33 1014.39 1014.43 1014.43 1014.39 1014.32 1014.23
1011.30 1010.57 1009.78 1009.00 1008.25 1007.56 1006.97 1006.50 1006.15 1005.96 1005.91 1006.02 1006.26 1006.63 1007.10 1007.64 1008.22 1008.81 1009.39 1009.94 1010.43 1010.86 1011.24 1011.55 1011.82 1012.06 1012.26 1012.46 1012.65 1012.84 1013.04 1013.24 1013.45 1013.64 1013.83 1014.00 1014.14 1014.24 1014.32 1014.35 1014.35 1014.33 1014.27 1014.19
1012.13 1011.42 1010.65 1009.87 1009.10 1008.39 1007.75 1007.22 1006.80 1006.52 1006.39 1006.40 1006.56 1006.84 1007.22 1007.69 1008.21 1008.75 1009.29 1009.80 1010.27 1010.68 1011.04 1011.34 1011.60 1011.82 1012.02 1012.21 1012.40 1012.59 1012.80 1013.01 1013.22 1013.44 1013.64 1013.82 1013.97 1014.09 1014.18 1014.24 1014.26 1014.25 1014.22 1014.17
1012.90 1012.22 1011.50 1010.74 1009.99 1009.27 1008.61 1008.03 1007.56 1007.21 1006.99 1006.91 1006.97 1007.14 1007.44 1007.81 1008.25 1008.73 1009.21 1009.67 1010.11 1010.50 1010.84 1011.13 1011.37 1011.59 1011.78 1011.96 1012.15 1012.34 1012.54 1012.76 1012.97 1013.19 1013.40 1013.59 1013.76 1013.91 1014.02 1014.10 1014.15 1014.18 1014.19 1014.18
1013.51 1012.90 1012.23 1011.52 1010.81 1010.12 1009.47 1008.88 1008.38 1007.97 1007.68 1007.50 1007.46 1007.54 1007.72 1007.99 1008.33 1008.72 1009.12 1009.53 1009.92 1010.28 1010.59 1010.87 1011.11 1011.33 1011.52 1011.71 1011.89 1012.08 1012.28 1012.49 1012.71 1012.93 1013.15 1013.36 1013.55 1013.71 1013.86 1013.98 1014.07 1014.14 1014.18 1014.21
1013.92 1013.37 1012.77 1012.14 1011.50 1010.87 1010.26 1009.69 1009.18 1008.74 1008.38 1008.14 1007.99 1007.96 1008.02 1008.17 1008.40 1008.68 1009.00 1009.33 1009.66 1009.98 1010.28 1010.54 1010.79 1011.01 1011.21 1011.40 1011.60 1011.79 1012.00 1012.22 1012.44 1012.66 1012.89 1013.11 1013.33 1013.52 1013.70 1013.86 1014.00 1014.11 1014.19 1014.26
1014.11 1013.63 1013.11 1012.57 1012.02 1011.46 1010.91 1010.38 1009.89 1009.43 1009.04 1008.72 1008.48 1008.34 1008.28 1008.30 1008.40 1008.57 1008.78 1009.03 1009.30 1009.57 1009.84 1010.10 1010.35 1010.59 1010.81 1011.03 1011.24 1011.46 1011.68 1011.90 1012.14 1012.38 1012.62 1012.86 1013.10 1013.33 1013.54 1013.74 1013.92 1014.08 1014.21 1014.30
1014.12 1013.69 1013.25 1012.80 1012.34 1011.88 1011.40 1010.92 1010.46 1010.00 1009.58 1009.20 1008.87 1008.62 1008.43 1008.33 1008.30 1008.34 1008.45 1008.61 1008.81 1009.04 1009.28 1009.54 1009.80 1010.05 1010.31 1010.55 1010.80 1011.04 1011.29 1011.53 1011.78 1012.04 1012.30 1012.56 1012.83 1013.09 1013.34 1013.58 1013.81 1014.01 1014.18 1014.31
1014.01 1013.62 1013.25 1012.87 1012.50 1012.11 1011.71 1011.29 1010.85 1010.40 1009.95 1009.52 1009.12 1008.76 1008.46 1008.24 1008.08 1008.01 1008.01 1008.08 1008.21 1008.40 1008.62 1008.87 1009.14 1009.42 1009.70 1009.99 1010.26 1010.54 1010.81 1011.07 1011.34 1011.62 1011.89 1012.18 1012.46 1012.76 1013.05 1013.33 1013.60 1013.85 1014.06 1014.24
1013.84 1013.48 1013.15 1012.83 1012.52 1012.20 1011.86 1011.48 1011.07 1010.62 1010.16 1009.68 1009.22 1008.77 1008.38 1008.04 1007.78 1007.60 1007.51 1007.50 1007.57 1007.71 1007.91 1008.16 1008.44 1008.73 1009.04 1009.34 1009.65 1009.94 1010.23 1010.51 1010.79 1011.07 1011.36 1011.66 1011.97 1012.29 1012.61 1012.94 1013.26 1013.56 1013.83 1014.07
1013.68 1013.33 1013.02 1012.74 1012.47 1012.19 1011.88 1011.53 1011.14 1010.70 1010.22 1009.71 1009.19 1008.69 1008.22 1007.80 1007.46 1007.20 1007.03 1006.95 1006.98 1007.08 1007.25 1007.48 1007.75 1008.05 1008.36 1008.68 1008.98 1009.28 1009.57 1009.85 1010.12 1010.40 1010.69 1010.99 1011.32 1011.66 1012.02 1012.39 1012.76 1013.12 1013.46 1013.77
1013.58 1013.23 1012.92 1012.65 1012.39 1012.12 1011.83 1011.49 1011.10 1010.66 1010.17 1009.64 1009.10 1008.56 1008.05 1007.58 1007.19 1006.87 1006.66 1006.54 1006.51 1006.58 1006.72 1006.92 1007.17 1007.45 1007.74 1008.03 1008.32 1008.59 1008.85 1009.10 1009.36 1009.62 1009.89 1010.19 1010.52 1010.88 1011.27 1011.68 1012.11 1012.54 1012.96 1013.35
1013.57 1013.20 1012.88 1012.59 1012.32 1012.04 1011.73 1011.39 1011.00 1010.55 1010.06 1009.54 1008.99 1008.45 1007.92 1007.45 1007.03 1006.70 1006.45 1006.30 1006.24 1006.26 1006.37 1006.53 1006.73 1006.96 1007.21 1007.45 1007.68 1007.90 1008.11 1008.32 1008.53 1008.75 1009.00 1009.29 1009.62 1009.99 1010.41 1010.87 1011.36 1011.86 1012.36 1012.84
1013.64 1013.25 1012.90 1012.58 1012.27 1011.96 1011.62 1011.26 1010.85 1010.41 1009.92 1009.41 1008.88 1008.36 1007.86 1007.39 1006.99 1006.65 1006.40 1006.23 1006.14 1006.13 1006.18 1006.29 1006.43 1006.59 1006.76 1006.93 1007.08 1007.23 1007.38 1007.53 1007.68 1007.87 1008.09 1008.36 1008.69 1009.07 1009.52 1010.03 1010.57 1011.15 1011.73 1012.30
Thickness
5682 5688 5689 5687 5686 5684 5679 5676 5671 5679 5684 5692 5697 5699 5701 5702 5701 5700 5699 5698 5697 5694 5693 5692 5691 5690 5688 5685 5683 5681 5678 5675 5674 5673 5672 5671 5668 5666 5666 5665 5664 5662 5660 5658
5675 5683 5684 5681 5684 5683 5682 5681 5679 5681 5683 5695 5696 5697 5698 5698 5697 5696 5695 5695 5694 5692 5689 5688 5687 5685 5683 5681 5679 5677 5674 5672 5671 5670 5669 5667 5665 5663 5662 5660 5659 5658 5656 5655
5660 5672 5675 5667 5676 5679 5680 5682 5680 5677 5683 5690 5690 5692 5693 5694 5694 5694 5693 5693 5691 5690 5688 5686 5683 5682 5680 5677 5675 5673 5671 5670 5668 5667 5665 5663 5662 5660 5658 5656 5655 5654 5653 5651
5650 5658 5650 5668 5682 5683 5678 5678 5681 5681 5683 5686 5687 5689 5691 5692 5691 5690 5690 5690 5689 5687 5685 5683 5680 5678 5676 5674 5672 5670 5667 5666 5665 5663 5661 5659 5657 5655 5654 5652 5651 5650 5649 5646
5640 5642 5652 5667 5676 5675 5671 5671 5679 5677 5679 5681 5684 5686 5686 5689 5689 5688 5688 5687 5686 5684 5682 5679 5676 5674 5672 5670 5668 5665 5664 5662 5661 5659 5657 5655 5653 5651 5649 5648 5647 5646 5644 5643
5639 5640 5640 5658 5673 5678 5673 5663 5674 5675 5674 5674 5676 5671 5676 5684 5684 5684 5683 5682 5681 5679 5677 5674 5672 5670 5668 5666 5664 5662 5660 5659 5657 5655 5652 5650 5649 5647 5645 5644 5643 5641 5640 5638
5634 5635 5642 5659 5668 5673 5656 5655 5667 5669 5670 5669 5668 5669 5674 5678 5678 5678 5678 5677 5676 5674 5671 5669 5668 5666 5663 5662 5660 5659 5658 5655 5653 5650 5648 5646 5644 5643 5641 5639 5637 5636 5634 5633
5626 5627 5634 5654 5657 5653 5651 5658 5662 5664 5665 5666 5665 5667 5670 5671 5671 5671 5671 5671 5670 5667 5665 5663 5663 5661 5659 5658 5658 5656 5653 5651 5648 5646 5644 5643 5640 5637 5635 5633 5631 5630 5628 5627
5623 5626 5636 5643 5646 5649 5651 5653 5656 5657 5660 5661 5660 5661 5664 5664 5664 5665 5664 5664 5663 5661 5659 5658 5657 5656 5654 5654 5653 5651 5648 5646 5644 5642 5639 5637 5635 5632 5630 5628 5626 5624 5622 5621
5616 5624 5631 5636 5640 5644 5647 5649 5651 5653 5655 5657 5656 5657 5658 5657 5657 5657 5657 5656 5656 5654 5653 5652 5651 5650 5650 5650 5648 5646 5643 5641 5639 5636 5634 5631 5629 5627 5625 5623 5621 5619 5618 5616
5608 5618 5624 5630 5632 5635 5639 5643 5645 5648 5651 5652 5652 5652 5652 5651 5651 5651 5651 5650 5649 5648 5647 5647 5646 5646 5645 5644 5642 5640 5637 5635 5633 5631 5628 5626 5624 5621 5620 5619 5617 5615 5614 5611
5600 5608 5610 5616 5624 5627 5630 5634 5637 5640 5643 5646 5647 5646 5647 5646 5646 5646 5645 5644 5642 5642 5641 5641 5640 5639 5639 5638 5637 5634 5632 5630 5628 5625 5623 5621 5619 5616 5614 5613 5612 5610 5608 5606
5597 5604 5607 5612 5616 5620 5623 5626 5630 5633 5635 5637 5639 5640 5641 5640 5639 5639 5639 5638 5636 5636 5636 5635 5634 5634 5634 5633 5632 5630 5628 5625 5623 5621 5619 5617 5614 5612 5609 5607 5606 5604 5602 5601
5595 5598 5600 5604 5606 5611 5615 5619 5623 5626 5628 5629 5631 5633 5633 5633 5633 5633 5632 5631 5631 5630 5630 5629 5629 5628 5628 5628 5626 5625 5623 5621 5619 5617 5615 5612 5610 5607 5605 5603 5601 5599 5597 5594
5588 5590 5591 5594 5598 5602 5606 5610 5613 5615 5619 5621 5623 5623 5624 5624 5624 5625 5625 5625 5624 5624 5623 5623 5623 5623 5623 5623 5621 5619 5618 5616 5614 5612 5610 5607 5605 5602 5600 5598 5595 5593 5591 5589
5580 5583 5585 5588 5590 5594 5597 5601 5603 5606 5609 5612 5613 5614 5615 5616 5616 5617 5617 5617 5616 5616 5617 5617 5617 5618 5618 5617 5616 5614 5613 5611 5609 5607 5605 5602 5600 5598 5595 5592 5590 5587 5585 5583
5572 5574 5576 5578 5582 5585 5588 5592 5595 5598 5601 5603 5604 5605 5606 5607 5608 5608 5609 5610 5611 5611 5611 5612 5612 5613 5613 5612 5611 5609 5608 5606 5603 5602 5600 5597 5595 5593 5591 5588 5585 5583 5581 5579
5569 5570 5571 5573 5574 5578 5582 5585 5588 5591 5593 5595 5597 5597 5597 5598 5599 5600 5602 5603 5604 5605 5605 5607 5607 5607 5607 5606 5605 5604 5602 5600 5598 5596 5595 5592 5590 5588 5586 5583 5581 5579 5576 5575
5564 5566 5567 5569 5571 5573 5576 5578 5581 5583 5586 5588 5589 5589 5589 5590 5591 5592 5594 5595 5596 5597 5599 5601 5601 5601 5601 5600 5599 5598 5596 5594 5592 5591 5589 5587 5585 5583 5581 5578 5576 5574 5572 5570
5559 5561 5563 5565 5567 5568 5571 5574 5576 5577 5579 5581 5582 5581 5582 5583 5584 5586 5587 5588 5590 5591 5593 5594 5595 5595 5594 5594 5593 5592 5590 5588 5587 5585 5583 5581 5579 5577 5576 5574 5572 5570 5568 5566
5552 5554 5557 5560 5562 5564 5566 5568 5570 5571 5572 5574 5574 5574 5574 5575 5577 5579 5580 5582 5585 5586 5587 5588 5588 5588 5588 5588 5587 5586 5585 5583 5581 5579 5577 5576 5574 5572 5571 5569 5567 5565 5563 5561
5546 5548 5551 5554 5556 5557 5559 5561 5562 5564 5565 5566 5567 5568 5568 5569 5570 5572 5574 5576 5579 5580 5581 5582 5583 5582 5582 5582 5582 5581 5579 5577 5576 5574 5572 5570 5568 5567 5565 5564 5562 5560 5558 5557
5539 5541 5544 5547 5549 5550 5552 5554 5556 5557 5558 5560 5560 5561 5562 5562 5564 5565 5567 5571 5573 5573 5575 5576 5576 5576 5576 5577 5576 5575 5573 5572 5570 5569 5567 5565 5563 5562 5560 5559 5557 5555 5554 5552
5533 5535 5537 5539 5542 5544 5546 5547 5549 5550 5552 5553 5555 5556 5556 5557 5558 5561 5563 5565 5566 5567 5568 5569 5569 5569 5570 5570 5569 5568 5567 5566 5564 5563 5562 5560 5558 5557 5555 5553 5551 5550 5548 5546
5528 5529 5531 5532 5535 5537 5539 5540 5542 5544 5545 5546 5548 5549 5551 5552 5553 5556 5557 5559 5560 5561 5562 5563 5563 5564 5564 5564 5563 5562 5561 5560 5559 5557 5556 5554 5553 5551 5549 5547 5545 5543 5541 5539
5524 5524 5525 5526 5527 5529 5531 5533 5534 5536 5537 5538 5540 5542 5544 5546 5548 5549 5551 5552 5554 5554 5556 5557 5557 5557 5558 5557 5557 5556 5555 5553 5552 5551 5550 5548 5546 5545 5543 5541 5539 5537 5535 5533
5518 5519 5520 5521 5523 5524 5525 5526 5527 5529 5530 5531 5533 5535 5537 5539 5541 5543 5544 5546 5547 5548 5549 5550 5550 5550 5550 5550 5549 5548 5547 5546 5545 5544 5542 5541 5540 5538 5536 5534 5533 5531 5529 5527